Location: Newark
(52.0178°N, 4.7453°W)
Time: 08:24:49
(UTC+00:00)

Envisat - Pass Details

Date: 25 March 2019
Orbit: 764 x 766 km, 98.2° (Epoch: 24 April)

Event Time Altitude Azimuth Distance (km) Brightness Sun altitude
Rises 20:08:36 0° 209° (SSW) 3,224 6.3 -14.0°
Reaches altitude 10° 20:11:35 10° 228° (SW) 2,303 5.8 -14.4°
Maximum altitude 20:15:05 19° 272° (W) 1,787 5.9 -14.9°
Drops below altitude 10° 20:18:37 10° 316° (NW) 2,315 6.6 -15.4°
Sets 20:21:39 0° 335° (NNW) 3,247 7.1 -15.8°
